Date,TemperatureHighF,TemperatureAvgF,TemperatureLowF,DewpointHighF,DewpointAvgF,DewpointLowF,HumidityHigh,HumidityAvg,HumidityLow,PressureMaxIn,PressureMinIn,WindSpeedMaxMPH,WindSpeedAvgMPH,GustSpeedMaxMPH,PrecipitationSumIn
2013-2-1,32.9,28.2,22.1,27.7,11.9,0.9,93,52,39,30.34,29.84,23,12,31,0.02
2013-2-2,31.1,25.0,18.7,23.2,7.4,-0.3,83,48,39,30.37,30.04,15,5,21,0.10
2013-2-3,34.3,29.2,24.4,24.2,21.1,16.9,88,72,56,30.04,29.84,8,2,12,0.07
2013-2-4,33.8,29.6,25.2,23.7,11.3,3.6,69,47,39,30.10,29.87,23,10,27,0.07
2013-2-5,45.9,37.4,31.6,31.0,26.7,20.8,87,67,39,29.95,29.87,8,1,10,0.00
2013-2-6,41.5,34.3,23.9,31.6,24.9,17.7,94,70,49,30.37,29.93,16,5,20,0.00
2013-2-7,42.3,33.1,22.5,31.0,19.7,10.5,81,59,39,30.49,30.22,10,5,16,0.00
2013-2-8,44.8,40.6,34.0,44.8,38.5,18.6,100,93,49,30.22,29.57,18,11,21,1.43
2013-2-9,35.2,31.6,28.0,33.0,14.6,6.6,94,50,39,30.37,29.78,24,19,33,1.43
2013-2-10,37.6,29.6,19.4,28.5,11.7,-0.8,74,48,39,30.49,30.34,13,3,15,0.00
2013-2-11,52.2,46.0,36.0,52.2,44.4,28.5,100,94,72,30.34,29.69,17,5,22,0.21
2013-2-12,48.0,41.5,31.5,45.5,29.0,23.9,100,63,39,29.99,29.75,13,5,17,0.21
2013-2-13,47.7,36.9,27.7,35.5,28.9,21.6,99,74,49,29.99,29.60,13,6,16,0.47
2013-2-14,43.2,36.1,30.4,34.7,30.8,26.9,100,83,55,30.04,29.69,9,4,31,0.52
2013-2-15,53.8,39.9,28.6,43.2,32.5,28.6,100,78,49,30.07,29.93,10,4,14,0.00
2013-2-16,39.9,36.0,28.9,32.8,29.6,23.1,88,77,64,29.99,29.75,13,6,16,0.17
2013-2-17,33.1,29.2,15.1,20.6,8.1,-5.5,68,41,39,30.07,29.72,24,18,31,0.04
2013-2-18,36.1,27.6,22.5,18.0,7.9,1.2,62,43,39,30.34,30.07,26,11,30,0.04
2013-2-19,51.8,41.4,31.6,44.7,32.3,18.9,96,71,50,30.25,29.72,10,4,14,0.11
2013-2-20,37.8,33.6,27.0,27.8,13.3,5.3,68,43,39,30.10,29.81,23,16,29,0.11
2013-2-21,34.9,29.9,24.6,17.4,8.9,3.1,54,41,39,30.28,30.07,21,15,26,0.00
2013-2-22,42.1,33.5,26.1,33.6,20.0,9.9,91,58,42,30.40,30.22,8,3,10,0.06
2013-2-23,48.4,42.8,36.0,48.4,42.6,33.6,100,99,91,30.22,29.75,15,4,20,0.18
2013-2-24,46.8,39.9,34.7,42.3,31.9,19.7,100,76,51,30.04,29.75,16,10,21,0.20
2013-2-25,44.8,35.1,26.6,25.6,21.5,18.9,85,59,39,30.25,30.04,15,6,20,0.00
2013-2-26,47.8,37.7,24.8,46.8,32.4,21.8,100,82,55,30.25,29.66,18,8,24,1.13
2013-2-27,53.8,47.5,43.5,49.3,42.0,34.3,100,83,53,29.69,29.48,13,5,18,1.13
2013-2-28,49.1,40.9,36.3,40.6,34.4,27.8,100,79,51,29.69,29.60,10,3,13,0.14